Time,TemperatureF,DewpointF,PressureIn,WindDirection,WindDirectionDegrees,WindSpeedMPH,WindSpeedGustMPH,Humidity,HourlyPrecipIn,Conditions,Clouds,dailyrainin,SoftwareType,DateUTC
2013-05-21 00:01:00,59.8,59.8,29.97,ESE,110,0.0,0.0,100,0.00,,---,0.00,VWS V14.01,2013-05-21 04:01:00,
2013-05-21 00:02:00,59.8,59.8,29.97,ESE,110,0.0,0.0,100,0.00,,---,0.00,VWS V14.01,2013-05-21 04:02:00,
2013-05-21 00:07:00,59.5,59.5,29.97,ESE,110,0.0,0.0,100,0.00,,---,0.00,VWS V14.01,2013-05-21 04:07:00,
2013-05-21 00:12:00,59.3,59.3,29.97,ESE,110,0.0,0.0,100,0.00,,---,0.00,VWS V14.01,2013-05-21 04:12:00,
2013-05-21 00:17:00,59.5,59.5,29.97,ESE,110,0.0,0.0,100,0.00,,---,0.00,VWS V14.01,2013-05-21 04:17:00,
2013-05-21 00:22:00,59.5,59.5,29.97,ESE,110,0.0,0.0,100,0.00,,---,0.00,VWS V14.01,2013-05-21 04:22:00,
2013-05-21 00:27:00,59.5,59.5,29.96,SSE,150,0.0,0.0,100,0.00,,---,0.00,VWS V14.01,2013-05-21 04:27:00,
2013-05-21 00:32:00,59.4,59.4,29.96,SSE,160,0.0,0.0,100,0.00,,---,0.00,VWS V14.01,2013-05-21 04:32:00,
2013-05-21 00:37:00,59.3,59.3,29.96,SSE,160,0.0,0.0,100,0.00,,---,0.00,VWS V14.01,2013-05-21 04:37:00,
2013-05-21 00:42:00,59.2,59.2,29.96,SSE,160,0.0,0.0,100,0.00,,---,0.00,VWS V14.01,2013-05-21 04:42:00,
2013-05-21 00:47:00,59.0,59.0,29.96,SSE,160,0.0,0.0,100,0.00,,---,0.00,VWS V14.01,2013-05-21 04:47:00,
2013-05-21 00:52:00,58.9,58.9,29.96,SSE,160,0.0,0.0,100,0.00,,---,0.00,VWS V14.01,2013-05-21 04:52:00,
2013-05-21 00:57:00,58.6,58.6,29.96,SSE,160,0.0,0.0,100,0.00,,---,0.00,VWS V14.01,2013-05-21 04:57:00,
2013-05-21 01:02:00,58.6,58.6,29.96,SSE,160,0.0,0.0,100,0.00,,---,0.00,VWS V14.01,2013-05-21 05:02:00,
2013-05-21 01:07:00,58.6,58.6,29.96,SSE,160,0.0,0.0,100,0.00,,---,0.00,VWS V14.01,2013-05-21 05:07:00,
2013-05-21 01:13:00,58.3,58.3,29.96,SSE,160,0.0,0.0,100,0.00,,---,0.00,VWS V14.01,2013-05-21 05:13:00,
2013-05-21 01:17:00,58.4,58.4,29.96,SSE,161,0.0,0.0,100,0.00,,---,0.00,VWS V14.01,2013-05-21 05:17:00,
2013-05-21 01:23:00,58.5,58.5,29.96,SSE,160,0.0,0.0,100,0.00,,---,0.00,VWS V14.01,2013-05-21 05:23:00,
2013-05-21 01:28:00,58.4,58.4,29.96,SSE,160,0.0,0.0,100,0.00,,---,0.00,VWS V14.01,2013-05-21 05:28:00,
2013-05-21 01:33:00,58.7,58.7,29.96,SSE,162,0.0,0.0,100,0.00,,---,0.00,VWS V14.01,2013-05-21 05:33:00,
2013-05-21 01:38:00,58.9,58.9,29.96,SSE,162,0.0,0.0,100,0.00,,---,0.00,VWS V14.01,2013-05-21 05:38:00,
2013-05-21 01:43:00,58.9,58.9,29.96,SSE,162,0.0,0.0,100,0.00,,---,0.00,VWS V14.01,2013-05-21 05:43:00,
2013-05-21 01:48:00,58.7,58.7,29.96,SSE,162,0.0,0.0,100,0.00,,---,0.00,VWS V14.01,2013-05-21 05:48:00,
2013-05-21 01:53:00,58.8,58.8,29.96,SSE,162,0.0,0.0,100,0.00,,---,0.00,VWS V14.01,2013-05-21 05:53:00,
2013-05-21 01:58:00,58.5,58.5,29.96,SSE,162,0.0,0.0,100,0.00,,---,0.00,VWS V14.01,2013-05-21 05:58:00,
2013-05-21 02:03:00,58.4,58.4,29.96,SSE,162,0.0,0.0,100,0.00,,---,0.00,VWS V14.01,2013-05-21 06:03:00,
2013-05-21 02:08:00,58.1,58.1,29.96,SSE,162,0.0,0.0,100,0.00,,---,0.00,VWS V14.01,2013-05-21 06:08:00,
2013-05-21 02:13:00,58.1,58.1,29.96,SSE,162,0.0,0.0,100,0.00,,---,0.00,VWS V14.01,2013-05-21 06:13:00,
2013-05-21 02:18:00,58.0,58.0,29.96,SSE,162,0.0,0.0,100,0.00,,---,0.00,VWS V14.01,2013-05-21 06:18:00,
2013-05-21 02:23:00,57.9,57.9,29.95,SSE,162,0.0,0.0,100,0.00,,---,0.00,VWS V14.01,2013-05-21 06:23:00,
2013-05-21 02:28:00,57.7,57.7,29.95,SSE,162,0.0,0.0,100,0.00,,---,0.00,VWS V14.01,2013-05-21 06:28:00,
2013-05-21 02:33:00,57.5,57.5,29.95,SSE,162,0.0,0.0,100,0.00,,---,0.00,VWS V14.01,2013-05-21 06:33:00,
2013-05-21 02:38:00,57.5,57.5,29.95,SSE,163,0.0,0.0,100,0.00,,---,0.00,VWS V14.01,2013-05-21 06:38:00,
2013-05-21 02:44:00,57.7,57.7,29.96,SSE,163,0.0,0.0,100,0.00,,---,0.00,VWS V14.01,2013-05-21 06:44:00,
2013-05-21 02:49:00,57.8,57.8,29.96,SSE,162,0.0,0.0,100,0.00,,---,0.00,VWS V14.01,2013-05-21 06:49:00,
2013-05-21 02:54:00,57.8,57.8,29.97,SSE,162,0.0,0.0,100,0.00,,---,0.00,VWS V14.01,2013-05-21 06:54:00,
2013-05-21 02:59:00,57.8,57.8,29.96,SSE,162,0.0,0.0,100,0.00,,---,0.00,VWS V14.01,2013-05-21 06:59:00,
2013-05-21 03:04:00,57.7,57.7,29.96,SSE,162,0.0,0.0,100,0.00,,---,0.00,VWS V14.01,2013-05-21 07:04:00,
2013-05-21 03:09:00,57.0,57.0,29.96,SSE,162,0.0,0.0,100,0.00,,---,0.00,VWS V14.01,2013-05-21 07:09:00,
2013-05-21 03:14:00,56.8,56.8,29.96,SSE,162,0.0,0.0,100,0.00,,---,0.00,VWS V14.01,2013-05-21 07:14:00,
2013-05-21 03:19:00,57.1,57.1,29.96,SSE,167,0.0,1.0,100,0.00,,---,0.00,VWS V14.01,2013-05-21 07:19:00,
2013-05-21 03:24:00,57.0,57.0,29.97,SSE,166,0.0,1.0,100,0.00,,---,0.00,VWS V14.01,2013-05-21 07:24:00,
2013-05-21 03:29:00,56.8,56.8,29.97,SE,132,0.0,1.0,100,0.00,,---,0.00,VWS V14.01,2013-05-21 07:29:00,
2013-05-21 03:34:00,56.9,56.9,29.96,SE,132,0.0,0.0,100,0.00,,---,0.00,VWS V14.01,2013-05-21 07:34:00,
2013-05-21 03:39:00,56.9,56.9,29.97,SE,134,0.0,0.0,100,0.00,,---,0.00,VWS V14.01,2013-05-21 07:39:00,
2013-05-21 03:44:00,57.1,57.1,29.97,SE,134,0.0,0.0,100,0.00,,---,0.00,VWS V14.01,2013-05-21 07:44:00,
2013-05-21 03:49:00,57.1,57.1,29.97,SSE,152,0.0,0.0,100,0.01,,---,0.01,VWS V14.01,2013-05-21 07:49:00,
2013-05-21 03:54:00,57.1,57.1,29.97,SSE,152,0.0,0.0,100,0.01,,---,0.01,VWS V14.01,2013-05-21 07:54:00,
2013-05-21 03:59:00,57.1,57.1,29.97,SSE,153,0.0,0.0,100,0.01,,---,0.01,VWS V14.01,2013-05-21 07:59:00,
2013-05-21 04:04:00,57.1,57.1,29.97,SSE,152,0.0,0.0,100,0.01,,---,0.01,VWS V14.01,2013-05-21 08:04:00,
2013-05-21 04:09:00,57.1,57.1,29.97,SSE,153,0.0,0.0,100,0.01,,---,0.01,VWS V14.01,2013-05-21 08:09:00,
2013-05-21 04:14:00,56.9,56.9,29.98,SSE,152,0.0,0.0,100,0.01,,---,0.01,VWS V14.01,2013-05-21 08:14:00,
2013-05-21 04:20:00,56.5,56.5,29.97,SSE,152,0.0,0.0,100,0.01,,---,0.01,VWS V14.01,2013-05-21 08:20:00,
2013-05-21 04:25:00,56.3,56.3,29.97,SSE,152,0.0,0.0,100,0.01,,---,0.01,VWS V14.01,2013-05-21 08:25:00,
2013-05-21 04:30:00,56.7,56.7,29.97,SSE,153,0.0,0.0,100,0.01,,---,0.01,VWS V14.01,2013-05-21 08:30:00,
2013-05-21 04:35:00,56.7,56.7,29.97,SSE,152,0.0,0.0,100,0.01,,---,0.01,VWS V14.01,2013-05-21 08:35:00,
2013-05-21 04:40:00,56.3,56.3,29.97,SSE,152,0.0,0.0,100,0.01,,---,0.01,VWS V14.01,2013-05-21 08:40:00,
2013-05-21 04:45:00,55.5,55.5,29.97,SE,136,0.0,0.0,100,0.01,,---,0.01,VWS V14.01,2013-05-21 08:45:00,
2013-05-21 04:50:00,55.5,55.5,29.98,SE,136,0.0,0.0,100,0.01,,---,0.01,VWS V14.01,2013-05-21 08:50:00,
2013-05-21 04:55:00,55.4,55.4,29.98,SE,136,0.0,0.0,100,0.01,,---,0.01,VWS V14.01,2013-05-21 08:55:00,
2013-05-21 05:00:00,55.5,55.5,29.97,SE,136,0.0,0.0,100,0.00,,---,0.01,VWS V14.01,2013-05-21 09:00:00,
2013-05-21 05:05:00,55.5,55.5,29.98,SE,136,0.0,0.0,100,0.00,,---,0.01,VWS V14.01,2013-05-21 09:05:00,
2013-05-21 05:10:00,55.5,55.5,29.98,SE,136,0.0,0.0,100,0.00,,---,0.01,VWS V14.01,2013-05-21 09:10:00,
2013-05-21 05:15:00,55.6,55.6,29.98,SSE,148,0.0,0.0,100,0.00,,---,0.01,VWS V14.01,2013-05-21 09:15:00,
2013-05-21 05:20:00,55.4,55.4,29.98,SSE,148,0.0,0.0,100,0.00,,---,0.01,VWS V14.01,2013-05-21 09:20:00,
2013-05-21 05:25:00,55.4,55.4,29.98,SSE,148,0.0,0.0,100,0.00,,---,0.01,VWS V14.01,2013-05-21 09:25:00,
2013-05-21 05:30:00,55.5,55.5,29.98,SSE,148,0.0,0.0,100,0.00,,---,0.01,VWS V14.01,2013-05-21 09:30:00,
2013-05-21 05:35:00,55.5,55.5,29.98,SSE,148,0.0,0.0,100,0.00,,---,0.01,VWS V14.01,2013-05-21 09:35:00,
2013-05-21 05:40:00,55.8,55.8,29.98,SSE,165,0.0,0.0,100,0.00,,---,0.01,VWS V14.01,2013-05-21 09:40:00,
2013-05-21 05:45:00,55.9,55.9,29.99,SSE,165,0.0,0.0,100,0.00,,---,0.01,VWS V14.01,2013-05-21 09:45:00,
2013-05-21 05:50:00,56.4,56.4,29.99,SSE,165,0.0,0.0,100,0.00,,---,0.01,VWS V14.01,2013-05-21 09:50:00,
2013-05-21 05:55:00,56.4,56.4,29.99,SSE,165,0.0,0.0,100,0.00,,---,0.01,VWS V14.01,2013-05-21 09:55:00,
2013-05-21 06:00:00,55.9,55.9,29.99,SSE,165,0.0,0.0,100,0.00,,---,0.01,VWS V14.01,2013-05-21 10:00:00,
2013-05-21 06:06:00,55.8,55.8,29.99,SE,131,0.0,0.0,100,0.00,,---,0.01,VWS V14.01,2013-05-21 10:06:00,
2013-05-21 06:11:00,55.2,55.2,29.99,SE,131,0.0,0.0,100,0.00,,---,0.01,VWS V14.01,2013-05-21 10:11:00,
2013-05-21 06:16:00,56.2,56.2,29.99,SE,131,0.0,0.0,100,0.00,,---,0.01,VWS V14.01,2013-05-21 10:16:00,
2013-05-21 06:21:00,56.5,56.5,30.00,SE,131,0.0,0.0,100,0.00,,---,0.01,VWS V14.01,2013-05-21 10:21:00,
2013-05-21 06:26:00,56.3,56.3,30.00,SE,131,0.0,0.0,100,0.00,,---,0.01,VWS V14.01,2013-05-21 10:26:00,
2013-05-21 06:31:00,56.7,56.7,30.00,SE,131,0.0,0.0,100,0.00,,---,0.01,VWS V14.01,2013-05-21 10:31:00,
2013-05-21 06:36:00,57.1,57.1,30.00,SSW,198,0.0,0.0,100,0.00,,---,0.01,VWS V14.01,2013-05-21 10:36:00,
2013-05-21 06:41:00,58.2,58.2,30.00,SSW,197,0.0,0.0,100,0.00,,---,0.01,VWS V14.01,2013-05-21 10:41:00,
2013-05-21 06:46:00,59.0,59.0,29.99,SSW,197,0.0,0.0,100,0.00,,---,0.01,VWS V14.01,2013-05-21 10:46:00,
2013-05-21 06:51:00,58.7,58.7,29.99,SSW,197,0.0,0.0,100,0.00,,---,0.01,VWS V14.01,2013-05-21 10:51:00,
2013-05-21 06:56:00,58.4,58.4,29.99,SSW,198,0.0,0.0,100,0.00,,---,0.01,VWS V14.01,2013-05-21 10:56:00,
2013-05-21 07:01:00,59.2,59.2,29.99,SSW,198,0.0,0.0,100,0.00,,---,0.01,VWS V14.01,2013-05-21 11:01:00,
2013-05-21 07:06:00,59.8,59.8,29.99,SSW,198,0.0,0.0,100,0.00,,---,0.01,VWS V14.01,2013-05-21 11:06:00,
2013-05-21 07:11:00,58.4,58.4,30.00,South,174,0.0,0.0,100,0.00,,---,0.01,VWS V14.01,2013-05-21 11:11:00,
2013-05-21 07:16:00,57.2,57.2,30.00,SSE,153,0.0,0.0,100,0.00,,---,0.01,VWS V14.01,2013-05-21 11:16:00,
2013-05-21 07:21:00,57.5,57.5,30.00,SE,136,0.0,2.0,100,0.00,,---,0.01,VWS V14.01,2013-05-21 11:21:00,
2013-05-21 07:26:00,57.9,57.9,30.00,SE,136,0.0,2.0,100,0.00,,---,0.01,VWS V14.01,2013-05-21 11:26:00,
2013-05-21 07:31:00,58.8,58.8,30.00,SE,135,0.0,0.0,100,0.00,,---,0.01,VWS V14.01,2013-05-21 11:31:00,
2013-05-21 07:36:00,59.7,59.7,30.00,SE,136,0.0,0.0,100,0.00,,---,0.01,VWS V14.01,2013-05-21 11:36:00,
2013-05-21 07:41:00,60.4,60.4,30.00,SE,136,0.0,0.0,100,0.00,,---,0.01,VWS V14.01,2013-05-21 11:41:00,
2013-05-21 07:46:00,60.9,60.9,30.00,ESE,118,0.0,1.0,100,0.00,,---,0.01,VWS V14.01,2013-05-21 11:46:00,
2013-05-21 07:51:00,60.6,60.6,30.00,ESE,117,0.0,1.0,100,0.00,,---,0.01,VWS V14.01,2013-05-21 11:51:00,
2013-05-21 07:57:00,61.5,61.5,30.00,ESE,117,0.0,1.0,100,0.00,,---,0.01,VWS V14.01,2013-05-21 11:57:00,
2013-05-21 08:02:00,61.9,61.9,30.00,ESE,117,0.0,0.0,100,0.00,,---,0.01,VWS V14.01,2013-05-21 12:02:00,
2013-05-21 08:07:00,62.3,62.3,30.00,SSE,155,0.0,0.0,100,0.00,,---,0.01,VWS V14.01,2013-05-21 12:07:00,
2013-05-21 08:12:00,62.7,62.7,30.00,SSE,162,0.0,0.0,100,0.00,,---,0.01,VWS V14.01,2013-05-21 12:12:00,
2013-05-21 08:17:00,63.2,63.2,30.00,SSE,162,0.0,0.0,100,0.00,,---,0.01,VWS V14.01,2013-05-21 12:17:00,
2013-05-21 08:22:00,64.0,64.0,30.00,West,272,0.0,1.0,100,0.00,,---,0.01,VWS V14.01,2013-05-21 12:22:00,
2013-05-21 08:27:00,64.6,64.6,30.00,West,269,0.0,1.0,100,0.00,,---,0.01,VWS V14.01,2013-05-21 12:27:00,
2013-05-21 08:32:00,65.2,65.2,30.01,WNW,287,0.0,1.0,100,0.00,,---,0.01,VWS V14.01,2013-05-21 12:32:00,
2013-05-21 08:37:00,65.6,65.6,30.01,WSW,256,0.0,4.0,100,0.00,,---,0.01,VWS V14.01,2013-05-21 12:37:00,
2013-05-21 08:42:00,66.3,65.7,30.01,SSW,193,0.0,4.0,98,0.00,,---,0.01,VWS V14.01,2013-05-21 12:42:00,
2013-05-21 08:47:00,66.9,65.7,30.01,WNW,300,4.0,5.0,96,0.00,,---,0.01,VWS V14.01,2013-05-21 12:47:00,
2013-05-21 08:52:00,67.5,65.4,30.01,SSE,160,1.0,5.0,93,0.00,,---,0.01,VWS V14.01,2013-05-21 12:52:00,
2013-05-21 08:57:00,68.1,65.4,30.01,SW,214,2.0,5.0,91,0.00,,---,0.01,VWS V14.01,2013-05-21 12:57:00,
2013-05-21 09:02:00,68.5,65.5,30.01,WSW,253,1.0,2.0,90,0.00,,---,0.01,VWS V14.01,2013-05-21 13:02:00,
2013-05-21 09:07:00,68.5,65.1,30.01,SSW,212,0.0,8.0,89,0.00,,---,0.01,VWS V14.01,2013-05-21 13:07:00,
2013-05-21 09:12:00,69.0,65.3,30.01,WNW,291,2.0,8.0,88,0.00,,---,0.01,VWS V14.01,2013-05-21 13:12:00,
2013-05-21 09:17:00,69.1,65.4,30.01,West,269,7.0,10.0,88,0.00,,---,0.01,VWS V14.01,2013-05-21 13:17:00,
2013-05-21 09:22:00,68.7,64.7,30.01,West,274,3.0,10.0,87,0.00,,---,0.01,VWS V14.01,2013-05-21 13:22:00,
2013-05-21 09:27:00,68.9,64.9,30.00,SW,215,3.0,10.0,87,0.00,,---,0.01,VWS V14.01,2013-05-21 13:27:00,
2013-05-21 09:32:00,69.1,64.7,30.00,SSE,155,1.0,5.0,86,0.00,,---,0.01,VWS V14.01,2013-05-21 13:32:00,
2013-05-21 09:37:00,69.5,65.1,30.01,WSW,250,5.0,7.0,86,0.00,,---,0.01,VWS V14.01,2013-05-21 13:37:00,
2013-05-21 09:42:00,69.6,65.2,30.01,SSW,198,6.0,11.0,86,0.00,,---,0.01,VWS V14.01,2013-05-21 13:42:00,
2013-05-21 09:47:00,69.6,64.9,30.01,West,263,3.0,11.0,85,0.00,,---,0.01,VWS V14.01,2013-05-21 13:47:00,
2013-05-21 09:52:00,69.6,64.9,30.01,WNW,301,3.0,11.0,85,0.00,,---,0.01,VWS V14.01,2013-05-21 13:52:00,
2013-05-21 09:57:00,69.1,64.7,30.01,SW,229,6.0,14.0,86,0.00,,---,0.01,VWS V14.01,2013-05-21 13:57:00,
2013-05-21 10:02:00,68.8,64.8,30.01,WSW,248,4.0,11.0,87,0.00,,---,0.01,VWS V14.01,2013-05-21 14:02:00,
2013-05-21 10:07:00,68.5,64.5,30.01,West,271,4.0,12.0,87,0.00,,---,0.01,VWS V14.01,2013-05-21 14:07:00,
2013-05-21 10:12:00,68.2,64.5,30.02,SW,218,6.0,12.0,88,0.00,,---,0.01,VWS V14.01,2013-05-21 14:12:00,
2013-05-21 10:17:00,68.4,64.7,30.02,SSW,205,3.0,12.0,88,0.00,,---,0.01,VWS V14.01,2013-05-21 14:17:00,
2013-05-21 10:22:00,68.4,64.7,30.01,SW,231,5.0,17.0,88,0.00,,---,0.01,VWS V14.01,2013-05-21 14:22:00,
2013-05-21 10:27:00,68.7,64.7,30.01,West,277,4.0,17.0,87,0.00,,---,0.01,VWS V14.01,2013-05-21 14:27:00,
2013-05-21 10:32:00,68.8,64.8,30.01,West,259,3.0,9.0,87,0.00,,---,0.01,VWS V14.01,2013-05-21 14:32:00,
2013-05-21 10:37:00,69.1,65.1,30.01,WSW,249,2.0,9.0,87,0.00,,---,0.01,VWS V14.01,2013-05-21 14:37:00,
2013-05-21 10:42:00,69.6,65.2,30.01,SSW,205,2.0,9.0,86,0.00,,---,0.01,VWS V14.01,2013-05-21 14:42:00,
2013-05-21 10:47:00,69.7,65.3,30.01,WSW,250,1.0,9.0,86,0.00,,---,0.01,VWS V14.01,2013-05-21 14:47:00,
2013-05-21 10:52:00,70.1,65.7,30.01,WSW,249,0.0,9.0,86,0.00,,---,0.01,VWS V14.01,2013-05-21 14:52:00,
2013-05-21 10:57:00,70.1,65.1,30.00,SW,224,4.0,9.0,84,0.00,,---,0.01,VWS V14.01,2013-05-21 14:57:00,
2013-05-21 11:02:00,69.9,65.2,30.00,SW,227,3.0,7.0,85,0.00,,---,0.01,VWS V14.01,2013-05-21 15:02:00,
2013-05-21 11:07:00,69.7,65.0,30.00,SW,224,8.0,9.0,85,0.00,,---,0.01,VWS V14.01,2013-05-21 15:07:00,
2013-05-21 11:12:00,70.0,65.6,30.00,SW,219,4.0,9.0,86,0.00,,---,0.01,VWS V14.01,2013-05-21 15:12:00,
2013-05-21 11:17:00,70.3,64.9,30.00,SSW,201,3.0,9.0,83,0.00,,---,0.01,VWS V14.01,2013-05-21 15:17:00,
2013-05-21 11:22:00,70.3,65.2,30.00,SW,233,4.0,9.0,84,0.00,,---,0.01,VWS V14.01,2013-05-21 15:22:00,
2013-05-21 11:28:00,70.2,65.1,30.00,SSW,203,3.0,9.0,84,0.00,,---,0.01,VWS V14.01,2013-05-21 15:28:00,
2013-05-21 11:32:00,70.6,65.9,30.00,SW,215,4.0,5.0,85,0.00,,---,0.01,VWS V14.01,2013-05-21 15:32:00,
2013-05-21 11:37:00,70.7,64.9,30.00,SW,236,5.0,6.0,82,0.00,,---,0.01,VWS V14.01,2013-05-21 15:37:00,
2013-05-21 11:43:00,70.9,65.8,30.00,West,278,0.0,6.0,84,0.00,,---,0.01,VWS V14.01,2013-05-21 15:43:00,
2013-05-21 11:48:00,71.2,65.1,29.99,South,177,1.0,6.0,81,0.00,,---,0.01,VWS V14.01,2013-05-21 15:48:00,
2013-05-21 11:53:00,71.9,65.8,30.00,SW,219,3.0,6.0,81,0.00,,---,0.01,VWS V14.01,2013-05-21 15:53:00,
2013-05-21 11:58:00,72.3,65.8,30.00,WSW,248,0.0,6.0,80,0.00,,---,0.01,VWS V14.01,2013-05-21 15:58:00,
2013-05-21 12:03:00,73.2,66.7,29.99,WNW,287,2.0,8.0,80,0.00,,---,0.01,VWS V14.01,2013-05-21 16:03:00,
2013-05-21 12:08:00,73.5,65.9,29.99,South,191,5.0,9.0,77,0.00,,---,0.01,VWS V14.01,2013-05-21 16:08:00,
2013-05-21 12:13:00,73.2,65.6,29.99,East,92,0.0,9.0,77,0.00,,---,0.01,VWS V14.01,2013-05-21 16:13:00,
2013-05-21 12:18:00,72.9,65.7,29.99,SSW,200,7.0,9.0,78,0.00,,---,0.01,VWS V14.01,2013-05-21 16:18:00,
2013-05-21 12:23:00,72.8,65.2,29.99,NNW,335,3.0,9.0,77,0.00,,---,0.01,VWS V14.01,2013-05-21 16:23:00,
2013-05-21 12:28:00,72.5,65.6,29.99,SW,233,2.0,9.0,79,0.00,,---,0.01,VWS V14.01,2013-05-21 16:28:00,
2013-05-21 12:33:00,72.8,65.6,29.99,North,351,4.0,12.0,78,0.00,,---,0.01,VWS V14.01,2013-05-21 16:33:00,
2013-05-21 12:38:00,74.0,65.6,29.99,SSW,210,6.0,12.0,75,0.00,,---,0.01,VWS V14.01,2013-05-21 16:38:00,
2013-05-21 12:43:00,73.6,65.9,29.99,SW,228,6.0,12.0,77,0.00,,---,0.01,VWS V14.01,2013-05-21 16:43:00,
2013-05-21 12:48:00,73.9,66.2,29.98,South,181,3.0,12.0,77,0.00,,---,0.01,VWS V14.01,2013-05-21 16:48:00,
2013-05-21 12:53:00,74.5,67.6,29.98,West,269,1.0,12.0,79,0.00,,---,0.01,VWS V14.01,2013-05-21 16:53:00,
2013-05-21 12:58:00,75.0,65.4,29.98,NW,309,5.0,12.0,72,0.00,,---,0.01,VWS V14.01,2013-05-21 16:58:00,
2013-05-21 13:03:00,75.3,65.3,29.98,WSW,242,6.0,9.0,71,0.00,,---,0.01,VWS V14.01,2013-05-21 17:03:00,
2013-05-21 13:08:00,74.5,66.1,29.98,SW,222,3.0,9.0,75,0.00,,---,0.01,VWS V14.01,2013-05-21 17:08:00,
2013-05-21 13:13:00,74.2,65.8,29.98,West,273,1.0,9.0,75,0.00,,---,0.01,VWS V14.01,2013-05-21 17:13:00,
2013-05-21 13:18:00,74.4,65.2,29.98,WNW,299,4.0,9.0,73,0.00,,---,0.01,VWS V14.01,2013-05-21 17:18:00,
2013-05-21 13:23:00,74.1,65.7,29.98,NW,323,2.0,9.0,75,0.00,,---,0.01,VWS V14.01,2013-05-21 17:23:00,
2013-05-21 13:28:00,74.5,66.8,29.97,WNW,303,0.0,9.0,77,0.00,,---,0.01,VWS V14.01,2013-05-21 17:28:00,
2013-05-21 13:33:00,75.1,65.5,29.97,SSE,166,3.0,8.0,72,0.00,,---,0.01,VWS V14.01,2013-05-21 17:33:00,
2013-05-21 13:38:00,74.9,64.9,29.97,South,184,0.0,10.0,71,0.00,,---,0.01,VWS V14.01,2013-05-21 17:38:00,
2013-05-21 13:43:00,74.9,65.3,29.97,South,191,4.0,10.0,72,0.00,,---,0.01,VWS V14.01,2013-05-21 17:43:00,
2013-05-21 13:48:00,75.0,65.4,29.97,SSW,201,2.0,10.0,72,0.00,,---,0.01,VWS V14.01,2013-05-21 17:48:00,
2013-05-21 13:53:00,75.4,67.3,29.97,West,275,3.0,10.0,76,0.00,,---,0.01,VWS V14.01,2013-05-21 17:53:00,
2013-05-21 13:58:00,75.7,64.4,29.96,WNW,290,1.0,11.0,68,0.00,,---,0.01,VWS V14.01,2013-05-21 17:58:00,
2013-05-21 14:03:00,75.4,64.9,29.96,West,263,3.0,7.0,70,0.00,,---,0.01,VWS V14.01,2013-05-21 18:03:00,
2013-05-21 14:08:00,76.1,65.2,29.95,SW,234,6.0,10.0,69,0.00,,---,0.01,VWS V14.01,2013-05-21 18:08:00,
2013-05-21 14:13:00,76.6,66.1,29.95,SSE,160,4.0,10.0,70,0.00,,---,0.01,VWS V14.01,2013-05-21 18:13:00,
2013-05-21 14:18:00,76.9,64.7,29.95,SSW,202,5.0,10.0,66,0.00,,---,0.01,VWS V14.01,2013-05-21 18:18:00,
2013-05-21 14:23:00,76.6,64.0,29.95,West,259,4.0,10.0,65,0.00,,---,0.01,VWS V14.01,2013-05-21 18:23:00,
2013-05-21 14:28:00,76.4,64.6,29.95,South,184,1.0,10.0,67,0.00,,---,0.01,VWS V14.01,2013-05-21 18:28:00,
2013-05-21 14:33:00,76.9,65.1,29.95,SW,226,3.0,6.0,67,0.00,,---,0.01,VWS V14.01,2013-05-21 18:33:00,
2013-05-21 14:38:00,77.3,65.5,29.95,NE,50,2.0,9.0,67,0.00,,---,0.01,VWS V14.01,2013-05-21 18:38:00,
2013-05-21 14:43:00,78.1,64.9,29.95,SW,224,9.0,11.0,64,0.00,,---,0.01,VWS V14.01,2013-05-21 18:43:00,
2013-05-21 14:48:00,77.3,64.6,29.94,SW,224,1.0,11.0,65,0.00,,---,0.01,VWS V14.01,2013-05-21 18:48:00,
2013-05-21 14:53:00,77.5,63.5,29.94,NW,308,7.0,11.0,62,0.00,,---,0.01,VWS V14.01,2013-05-21 18:53:00,
2013-05-21 14:58:00,77.2,64.1,29.94,NNE,15,0.0,11.0,64,0.00,,---,0.01,VWS V14.01,2013-05-21 18:58:00,
2013-05-21 15:03:00,77.1,62.6,29.94,ENE,60,1.0,7.0,61,0.00,,---,0.01,VWS V14.01,2013-05-21 19:03:00,
2013-05-21 15:08:00,77.5,62.5,29.93,SW,225,3.0,10.0,60,0.00,,---,0.01,VWS V14.01,2013-05-21 19:08:00,
2013-05-21 15:13:00,77.8,63.3,29.94,WSW,243,2.0,10.0,61,0.00,,---,0.01,VWS V14.01,2013-05-21 19:13:00,
2013-05-21 15:18:00,78.1,64.0,29.93,North,1,2.0,10.0,62,0.00,,---,0.01,VWS V14.01,2013-05-21 19:18:00,
2013-05-21 15:23:00,78.4,62.9,29.93,SW,217,4.0,10.0,59,0.00,,---,0.01,VWS V14.01,2013-05-21 19:23:00,
2013-05-21 15:28:00,79.0,62.5,29.93,SW,229,1.0,10.0,57,0.00,,---,0.01,VWS V14.01,2013-05-21 19:28:00,
2013-05-21 15:33:00,79.4,61.3,29.93,SSW,211,5.0,6.0,54,0.00,,---,0.01,VWS V14.01,2013-05-21 19:33:00,
2013-05-21 15:38:00,79.4,61.8,29.92,SSW,211,2.0,9.0,55,0.00,,---,0.01,VWS V14.01,2013-05-21 19:38:00,
2013-05-21 15:43:00,79.1,61.0,29.92,SW,228,2.0,9.0,54,0.00,,---,0.01,VWS V14.01,2013-05-21 19:43:00,
2013-05-21 15:48:00,78.3,60.3,29.92,SSW,197,1.0,9.0,54,0.00,,---,0.01,VWS V14.01,2013-05-21 19:48:00,
2013-05-21 15:53:00,78.6,61.1,29.92,SSW,204,1.0,9.0,55,0.00,,---,0.01,VWS V14.01,2013-05-21 19:53:00,
2013-05-21 15:58:00,79.0,61.5,29.92,ENE,63,2.0,9.0,55,0.00,,---,0.01,VWS V14.01,2013-05-21 19:58:00,
2013-05-21 16:04:00,79.1,61.0,29.91,NW,326,1.0,2.0,54,0.00,,---,0.01,VWS V14.01,2013-05-21 20:04:00,
2013-05-21 16:09:00,79.3,61.2,29.91,SW,221,5.0,6.0,54,0.00,,---,0.01,VWS V14.01,2013-05-21 20:09:00,
2013-05-21 16:14:00,79.0,61.5,29.91,SW,224,2.0,7.0,55,0.00,,---,0.01,VWS V14.01,2013-05-21 20:14:00,
2013-05-21 16:19:00,79.0,61.0,29.91,SSW,207,2.0,7.0,54,0.00,,---,0.01,VWS V14.01,2013-05-21 20:19:00,
2013-05-21 16:24:00,79.4,61.3,29.91,SSW,192,4.0,7.0,54,0.00,,---,0.01,VWS V14.01,2013-05-21 20:24:00,
2013-05-21 16:29:00,79.3,62.3,29.90,ESE,115,7.0,7.0,56,0.00,,---,0.01,VWS V14.01,2013-05-21 20:29:00,
2013-05-21 16:34:00,79.3,60.7,29.90,SSE,155,3.0,5.0,53,0.00,,---,0.01,VWS V14.01,2013-05-21 20:34:00,
2013-05-21 16:39:00,79.3,58.5,29.90,SSW,201,1.0,5.0,49,0.00,,---,0.01,VWS V14.01,2013-05-21 20:39:00,
2013-05-21 16:44:00,80.0,60.8,29.90,WNW,293,3.0,5.0,52,0.00,,---,0.01,VWS V14.01,2013-05-21 20:44:00,
2013-05-21 16:49:00,80.5,62.9,29.89,SE,127,4.0,6.0,55,0.00,,---,0.01,VWS V14.01,2013-05-21 20:49:00,
2013-05-21 16:54:00,80.1,60.4,29.89,East,101,2.0,6.0,51,0.00,,---,0.01,VWS V14.01,2013-05-21 20:54:00,
2013-05-21 16:59:00,79.9,60.7,29.89,ESE,113,3.0,8.0,52,0.00,,---,0.01,VWS V14.01,2013-05-21 20:59:00,
2013-05-21 17:04:00,80.0,62.4,29.89,SSW,204,4.0,6.0,55,0.00,,---,0.01,VWS V14.01,2013-05-21 21:04:00,
2013-05-21 17:09:00,79.9,60.7,29.89,SE,136,4.0,9.0,52,0.00,,---,0.01,VWS V14.01,2013-05-21 21:09:00,
2013-05-21 17:14:00,79.7,60.5,29.88,SSE,154,3.0,9.0,52,0.00,,---,0.01,VWS V14.01,2013-05-21 21:14:00,
2013-05-21 17:19:00,79.5,63.0,29.88,SW,217,3.0,9.0,57,0.00,,---,0.01,VWS V14.01,2013-05-21 21:19:00,
2013-05-21 17:24:00,79.5,60.9,29.87,ESE,119,3.0,9.0,53,0.00,,---,0.01,VWS V14.01,2013-05-21 21:24:00,
2013-05-21 17:29:00,79.5,61.4,29.87,East,96,3.0,9.0,54,0.00,,---,0.01,VWS V14.01,2013-05-21 21:29:00,
2013-05-21 17:34:00,79.6,59.9,29.87,SSE,148,2.0,4.0,51,0.00,,---,0.01,VWS V14.01,2013-05-21 21:34:00,
2013-05-21 17:39:00,79.7,60.5,29.87,SSW,205,2.0,4.0,52,0.00,,---,0.01,VWS V14.01,2013-05-21 21:39:00,
2013-05-21 17:44:00,79.4,59.7,29.87,WSW,239,1.0,6.0,51,0.00,,---,0.01,VWS V14.01,2013-05-21 21:44:00,
2013-05-21 17:49:00,79.3,60.7,29.87,SW,217,2.0,6.0,53,0.00,,---,0.01,VWS V14.01,2013-05-21 21:49:00,
2013-05-21 17:54:00,79.2,58.4,29.87,SW,214,2.0,6.0,49,0.00,,---,0.01,VWS V14.01,2013-05-21 21:54:00,
2013-05-21 17:59:00,79.3,60.2,29.87,SE,134,1.0,6.0,52,0.00,,---,0.01,VWS V14.01,2013-05-21 21:59:00,
2013-05-21 18:04:00,79.4,59.7,29.87,WSW,243,2.0,4.0,51,0.00,,---,0.01,VWS V14.01,2013-05-21 22:04:00,
2013-05-21 18:09:00,79.4,59.7,29.87,SSW,208,2.0,4.0,51,0.00,,---,0.01,VWS V14.01,2013-05-21 22:09:00,
2013-05-21 18:14:00,79.6,60.4,29.86,SSE,165,0.0,4.0,52,0.00,,---,0.01,VWS V14.01,2013-05-21 22:14:00,
2013-05-21 18:19:00,79.5,60.9,29.86,East,94,3.0,9.0,53,0.00,,---,0.01,VWS V14.01,2013-05-21 22:19:00,
2013-05-21 18:24:00,79.0,62.0,29.87,East,84,3.0,9.0,56,0.00,,---,0.01,VWS V14.01,2013-05-21 22:24:00,
2013-05-21 18:29:00,79.0,62.0,29.87,South,177,0.0,0.0,56,0.00,,---,0.01,VWS V14.01,2013-05-21 22:29:00,
2013-05-21 18:35:00,79.0,62.0,29.87,SE,133,3.0,6.0,56,0.00,,---,0.01,VWS V14.01,2013-05-21 22:35:00,
2013-05-21 18:40:00,78.6,61.6,29.87,SSE,151,4.0,8.0,56,0.00,,---,0.01,VWS V14.01,2013-05-21 22:40:00,
2013-05-21 18:45:00,78.4,61.4,29.87,ESE,115,6.0,8.0,56,0.00,,---,0.01,VWS V14.01,2013-05-21 22:45:00,
2013-05-21 18:50:00,78.1,61.6,29.87,ENE,68,3.0,8.0,57,0.00,,---,0.01,VWS V14.01,2013-05-21 22:50:00,
2013-05-21 18:55:00,77.9,61.5,29.87,ESE,120,3.0,10.0,57,0.00,,---,0.01,VWS V14.01,2013-05-21 22:55:00,
2013-05-21 19:00:00,77.7,61.8,29.87,NNE,25,1.0,2.0,58,0.00,,---,0.01,VWS V14.01,2013-05-21 23:00:00,
2013-05-21 19:05:00,77.7,61.8,29.87,SSW,200,0.0,11.0,58,0.00,,---,0.01,VWS V14.01,2013-05-21 23:05:00,
2013-05-21 19:10:00,77.8,61.4,29.87,SW,226,2.0,11.0,57,0.00,,---,0.01,VWS V14.01,2013-05-21 23:10:00,
2013-05-21 19:15:00,77.8,61.4,29.87,ESE,119,2.0,11.0,57,0.00,,---,0.01,VWS V14.01,2013-05-21 23:15:00,
2013-05-21 19:20:00,77.7,60.8,29.87,South,174,1.0,11.0,56,0.00,,---,0.01,VWS V14.01,2013-05-21 23:20:00,
2013-05-21 19:25:00,77.6,60.7,29.87,SE,138,1.0,11.0,56,0.00,,---,0.01,VWS V14.01,2013-05-21 23:25:00,
2013-05-21 19:30:00,77.5,61.1,29.87,WSW,255,0.0,1.0,57,0.00,,---,0.01,VWS V14.01,2013-05-21 23:30:00,
2013-05-21 19:35:00,77.1,61.7,29.87,WSW,243,0.0,1.0,59,0.00,,---,0.01,VWS V14.01,2013-05-21 23:35:00,
2013-05-21 19:40:00,76.5,61.6,29.87,SSW,205,0.0,1.0,60,0.00,,---,0.01,VWS V14.01,2013-05-21 23:40:00,
2013-05-21 19:45:00,76.1,61.2,29.87,SSW,205,0.0,1.0,60,0.00,,---,0.01,VWS V14.01,2013-05-21 23:45:00,
2013-05-21 19:50:00,75.6,61.7,29.87,SSW,205,0.0,1.0,62,0.00,,---,0.01,VWS V14.01,2013-05-21 23:50:00,
2013-05-21 19:55:00,75.0,61.6,29.87,SSW,205,0.0,1.0,63,0.00,,---,0.01,VWS V14.01,2013-05-21 23:55:00,
2013-05-21 20:00:00,74.5,62.0,29.87,SW,236,0.0,0.0,65,0.00,,---,0.01,VWS V14.01,2013-05-22 00:00:00,
2013-05-21 20:05:00,74.0,61.9,29.87,SW,236,0.0,0.0,66,0.00,,---,0.01,VWS V14.01,2013-05-22 00:05:00,
2013-05-21 20:10:00,73.6,62.0,29.87,SW,236,0.0,0.0,67,0.00,,---,0.01,VWS V14.01,2013-05-22 00:10:00,
2013-05-21 20:15:00,73.3,62.1,29.87,SW,233,0.0,1.0,68,0.00,,---,0.01,VWS V14.01,2013-05-22 00:15:00,
2013-05-21 20:21:00,72.8,62.5,29.88,ESE,113,1.0,4.0,70,0.00,,---,0.01,VWS V14.01,2013-05-22 00:21:00,
2013-05-21 20:25:00,72.5,62.2,29.88,ENE,75,0.0,4.0,70,0.00,,---,0.01,VWS V14.01,2013-05-22 00:25:00,
2013-05-21 20:31:00,72.2,61.9,29.88,ENE,75,0.0,0.0,70,0.00,,---,0.01,VWS V14.01,2013-05-22 00:31:00,
2013-05-21 20:36:00,72.0,62.1,29.88,ENE,75,0.0,0.0,71,0.00,,---,0.01,VWS V14.01,2013-05-22 00:36:00,
2013-05-21 20:41:00,72.1,61.8,29.88,ENE,75,0.0,0.0,70,0.00,,---,0.01,VWS V14.01,2013-05-22 00:41:00,
2013-05-21 20:46:00,72.0,61.3,29.88,ENE,75,0.0,0.0,69,0.00,,---,0.01,VWS V14.01,2013-05-22 00:46:00,
2013-05-21 20:51:00,71.4,62.3,29.89,ESE,103,8.0,9.0,73,0.00,,---,0.01,VWS V14.01,2013-05-22 00:51:00,
2013-05-21 20:56:00,70.4,58.5,29.89,ESE,116,3.0,11.0,66,0.00,,---,0.01,VWS V14.01,2013-05-22 00:56:00,
2013-05-21 21:01:00,69.5,58.1,29.89,ESE,120,1.0,3.0,67,0.00,,---,0.01,VWS V14.01,2013-05-22 01:01:00,
2013-05-21 21:06:00,68.6,57.6,29.88,ESE,104,1.0,3.0,68,0.00,,---,0.01,VWS V14.01,2013-05-22 01:06:00,
2013-05-21 21:11:00,67.9,58.2,29.90,SW,225,21.0,22.0,71,0.00,,---,0.01,VWS V14.01,2013-05-22 01:11:00,
2013-05-21 21:16:00,67.3,60.2,29.92,SSW,210,6.0,23.0,78,0.00,,---,0.01,VWS V14.01,2013-05-22 01:16:00,
2013-05-21 21:21:00,64.9,60.3,29.93,WSW,238,7.0,23.0,85,0.35,,---,0.36,VWS V14.01,2013-05-22 01:21:00,
2013-05-21 21:26:00,63.0,60.0,29.93,WNW,283,6.0,23.0,90,0.54,,---,0.55,VWS V14.01,2013-05-22 01:26:00,
2013-05-21 21:31:00,62.2,59.8,29.93,West,276,0.0,15.0,92,0.56,,---,0.57,VWS V14.01,2013-05-22 01:31:00,
2013-05-21 21:36:00,61.8,59.8,29.92,NW,312,7.0,15.0,93,0.56,,---,0.57,VWS V14.01,2013-05-22 01:36:00,
2013-05-21 21:41:00,61.6,59.6,29.92,SSW,205,5.0,15.0,93,0.56,,---,0.57,VWS V14.01,2013-05-22 01:41:00,
2013-05-21 21:46:00,61.5,59.5,29.92,NNE,33,1.0,15.0,93,0.56,,---,0.57,VWS V14.01,2013-05-22 01:46:00,
2013-05-21 21:51:00,61.3,59.3,29.92,NE,39,2.0,15.0,93,0.56,,---,0.57,VWS V14.01,2013-05-22 01:51:00,
2013-05-21 21:56:00,61.1,59.4,29.92,WSW,256,0.0,15.0,94,0.56,,---,0.57,VWS V14.01,2013-05-22 01:56:00,
2013-05-21 22:01:00,60.9,58.9,29.92,WNW,302,0.0,1.0,93,0.56,,---,0.57,VWS V14.01,2013-05-22 02:01:00,
2013-05-21 22:06:00,60.8,59.1,29.92,SSE,165,1.0,2.0,94,0.56,,---,0.57,VWS V14.01,2013-05-22 02:06:00,
2013-05-21 22:11:00,60.6,58.6,29.92,SW,229,2.0,3.0,93,0.56,,---,0.57,VWS V14.01,2013-05-22 02:11:00,
2013-05-21 22:16:00,60.5,58.5,29.92,WSW,253,0.0,3.0,93,0.56,,---,0.57,VWS V14.01,2013-05-22 02:16:00,
2013-05-21 22:21:00,60.5,58.5,29.92,WSW,248,0.0,3.0,93,0.56,,---,0.57,VWS V14.01,2013-05-22 02:21:00,
2013-05-21 22:26:00,60.5,58.2,29.92,SW,226,0.0,3.0,92,0.56,,---,0.57,VWS V14.01,2013-05-22 02:26:00,
2013-05-21 22:31:00,60.4,58.1,29.92,West,263,0.0,1.0,92,0.00,,---,0.57,VWS V14.01,2013-05-22 02:31:00,
2013-05-21 22:36:00,60.3,58.3,29.92,West,276,0.0,2.0,93,0.00,,---,0.57,VWS V14.01,2013-05-22 02:36:00,
2013-05-21 22:41:00,60.2,57.9,29.93,SSW,207,0.0,2.0,92,0.00,,---,0.57,VWS V14.01,2013-05-22 02:41:00,
2013-05-21 22:46:00,60.1,58.4,29.93,SE,138,2.0,4.0,94,0.00,,---,0.57,VWS V14.01,2013-05-22 02:46:00,
2013-05-21 22:51:00,59.9,58.2,29.95,SE,129,3.0,4.0,94,0.00,,---,0.57,VWS V14.01,2013-05-22 02:51:00,
2013-05-21 22:56:00,59.7,58.3,29.95,ESE,110,0.0,4.0,95,0.00,,---,0.57,VWS V14.01,2013-05-22 02:56:00,
2013-05-21 23:01:00,59.7,58.3,29.95,East,88,1.0,1.0,95,0.00,,---,0.57,VWS V14.01,2013-05-22 03:01:00,
2013-05-21 23:06:00,59.6,58.2,29.95,ENE,77,0.0,1.0,95,0.00,,---,0.57,VWS V14.01,2013-05-22 03:06:00,
2013-05-21 23:11:00,59.6,58.2,29.95,ENE,76,0.0,1.0,95,0.00,,---,0.57,VWS V14.01,2013-05-22 03:11:00,
2013-05-21 23:16:00,59.5,58.1,29.94,ENE,58,1.0,2.0,95,0.00,,---,0.57,VWS V14.01,2013-05-22 03:16:00,
2013-05-21 23:21:00,59.4,58.3,29.94,ENE,58,1.0,2.0,96,0.00,,---,0.57,VWS V14.01,2013-05-22 03:21:00,
2013-05-21 23:26:00,59.3,58.2,29.93,NE,40,1.0,2.0,96,0.00,,---,0.57,VWS V14.01,2013-05-22 03:26:00,
2013-05-21 23:31:00,59.2,58.1,29.94,ENE,65,0.0,1.0,96,0.00,,---,0.57,VWS V14.01,2013-05-22 03:31:00,
2013-05-21 23:36:00,59.2,58.3,29.94,ENE,65,0.0,1.0,97,0.00,,---,0.57,VWS V14.01,2013-05-22 03:36:00,
2013-05-21 23:41:00,59.1,58.2,29.93,ENE,65,0.0,1.0,97,0.00,,---,0.57,VWS V14.01,2013-05-22 03:41:00,
2013-05-21 23:47:00,59.0,58.2,29.93,ENE,65,0.0,1.0,97,0.00,,---,0.57,VWS V14.01,2013-05-22 03:47:00,
2013-05-21 23:52:00,58.9,58.0,29.92,ENE,65,1.0,1.0,97,0.00,,---,0.57,VWS V14.01,2013-05-22 03:52:00,
2013-05-21 23:57:00,58.9,58.0,29.92,SE,139,1.0,1.0,97,0.00,,---,0.57,VWS V14.01,2013-05-22 03:57:00,